Weather in Polibino

Russia / Pskov Oblast     56°08′07″N   30°23′29″E
temp.,
°C
wind,
m/s
gust,
m/s
humid.,
%
clouds,
%
prec.,
mm/h
press.,
hPa
HPBL,
m
18 may, tue
tue1800:00+14n3799100 4.4 1003180
03:00+14ese399893 4.8 1002226
06:00+16se41297100 0.0 1001425
09:00+19se488864 0.0 1002612
12:00+21s6107788 0.6 10031166
15:00+22s5868100 1.0 10031371
18:00+16sse489699 7.4 1003342
21:00+15se2596100 8.5 1002123
19 may, wed
wed1900:00+15nnw1195100 1.1 100011
03:00+14sse3799100 1.9 1000336
06:00+14se5119778 0.0 1001545
09:00+15sse4889100 0.1 1002594
12:00+16sse4787100 0.4 1003798
15:00+17sse3788100 1.3 1004636
18:00+17ssw358941 2.0 1004544
21:00+13wnw259642 2.9 1006114
20 may, thu
thu2000:00+10nw369886 0.0 1006172
03:00+10nnw4897100 0.0 1006319
06:00+10n51197100 0.1 1005469
09:00+10n51297100 0.6 1004562
12:00+11n61298100 2.8 1002684
15:00+12n61198100 4.6 1000711
18:00+11nnw5798100 2.9 1000590
21:00+9nw61197100 3.4 1001566
21 may, fri
fri2100:00+9nw71496100 4.7 1001954
03:00+8nw81595100 8.6 10031183
06:00+8wnw81792100 1.5 10051140
09:00+9wnw61383100 1.6 1008678
12:00+14w695593 0.0 10101383
15:00+16w68485 0.0 10112173
18:00+15w585892 0.0 10121500
21:00+9sw347415 0.0 101461
22 may, sat
sat2200:00+6sw39902 0.0 1016192
03:00+5sw37945 0.0 1017128
06:00+6sw26883 0.0 1018142
09:00+12ssw346511 0.0 1019568
12:00+15s3352100 0.0 10181350
15:00+17s3547100 0.0 10161730
18:00+16s365963 0.0 10161093
21:00+11ssw34817 0.0 101664